Погода в Топаре

Казахстан     49°31′16″N   72°49′37″E
темп.,
°C
ветер,
м/с
пор.,
м/с
влажн.,
%
обл.,
%
осадки,
мм/ч
давл.,
гПа
погр.,
м
15 августа, пн
пн1500:00+18св611530 0.0 1013430
03:00+16св612480 0.0 1014380
06:00+14всв511550 0.0 1015323
09:00+18всв78412 0.0 1016764
12:00+22св65334 0.0 10151534
15:00+24св65225 0.0 10142012
18:00+23св76232 0.0 10142069
21:00+18св612330 0.0 1016381
16 августа, вт
вт1600:00+15всв511440 0.0 1017310
03:00+13св38520 0.0 1017156
06:00+11всв36590 0.0 1018111
09:00+16всв56450 0.0 1019720
12:00+20св44310 0.0 10181826
15:00+22ссв44260 0.0 10172322
18:00+22ссв44264 0.0 10162521
21:00+16с510355 0.0 1017232
17 августа, ср
ср1700:00+14св33422 0.0 101830
03:00+12вюв22463 0.0 101711
06:00+10сз22520 0.0 101810
09:00+16ссз45380 0.0 1018655
12:00+20ссз55315 0.0 10172137
15:00+22ссз56269 0.0 10162613
18:00+20с773211 0.0 10161821
21:00+15с34470 0.0 101758
18 августа, чт
чт1800:00+15ююз114999 0.0 101610
03:00+14ссв345154 0.0 1016173
06:00+11ссв34685 0.0 101671
09:00+14ссв45595 0.0 1017781
12:00+18ссз563135 0.0 10162234
15:00+18с873078 0.0 10162344
18:00+18с762748 0.0 10152463
21:00+13ссв2335100 0.0 101629
19 августа, пт
пт1900:00+9всв510542 0.0 1018310
03:00+8всв35635 0.0 1018107
06:00+6св33695 0.0 101831
09:00+11св45525 0.0 1019847
12:00+14ссв553479 0.0 10191998
15:00+14ссв8638100 0.0 10191852
18:00+13ссв6640100 0.0 10201527
21:00+11ссв48465 0.0 1022261